| time (UTC) | temp F | wind direction | speed MPH | gust MPH | rain 1hr in | rain 24hr in | rain mn in | humidity % | barometer mb |
| 20260504210037 | 66 | 127 | 4.0 | 11.0 | 0.00 | 0.00 | 0.00 | 44 | 1004.0 |
| 20260504205534 | 66 | 122 | 5.0 | 9.0 | 0.00 | 0.00 | 0.00 | 44 | 1004.0 |
| 20260504205034 | 65 | 125 | 4.0 | 7.0 | 0.00 | 0.00 | 0.00 | 44 | 1004.1 |
| 20260504204535 | 65 | 126 | 4.0 | 6.0 | 0.00 | 0.00 | 0.00 | 46 | 1004.1 |
| 20260504204035 | 66 | 120 | 4.0 | 7.0 | 0.00 | 0.00 | 0.00 | 44 | 1004.0 |
| 20260504203533 | 66 | 116 | 3.0 | 7.0 | 0.00 | 0.00 | 0.00 | 45 | 1004.3 |
| 20260504203034 | 66 | 115 | 2.0 | 4.0 | 0.00 | 0.00 | 0.00 | 46 | 1004.1 |
| 20260504202534 | 66 | 116 | 4.0 | 4.0 | 0.00 | 0.00 | 0.00 | 46 | 1004.1 |
| 20260504202031 | 66 | 131 | 3.0 | 8.0 | 0.00 | 0.00 | 0.00 | 46 | 1004.1 |
| 20260504201530 | 66 | 133 | 2.0 | 8.0 | 0.00 | 0.00 | 0.00 | 45 | 1004.1 |
| 20260504201029 | 67 | 132 | 4.0 | 9.0 | 0.00 | 0.00 | 0.00 | 44 | 1004.0 |
| 20260504200028 | 67 | 140 | 4.0 | 11.0 | 0.00 | 0.00 | 0.00 | 44 | 1004.2 |
| 20260504195529 | 67 | 149 | 4.0 | 11.0 | 0.00 | 0.00 | 0.00 | 43 | 1004.1 |
| 20260504194528 | 67 | 150 | 4.0 | 11.0 | 0.00 | 0.00 | 0.00 | 44 | 1004.2 |
| 20260504194028 | 67 | 147 | 3.0 | 9.0 | 0.00 | 0.00 | 0.00 | 44 | 1004.1 |
| 20260504193527 | 67 | 147 | 5.0 | 8.0 | 0.00 | 0.00 | 0.00 | 44 | 1004.1 |
| 20260504193028 | 67 | 145 | 4.0 | 8.0 | 0.00 | 0.00 | 0.00 | 45 | 1004.1 |
| 20260504192528 | 67 | 149 | 5.0 | 8.0 | 0.00 | 0.00 | 0.00 | 45 | 1004.0 |
| 20260504192028 | 67 | 156 | 4.0 | 11.0 | 0.00 | 0.00 | 0.00 | 46 | 1004.2 |
| 20260504191527 | 68 | 155 | 5.0 | 11.0 | 0.00 | 0.00 | 0.00 | 45 | 1004.1 |
| 20260504191027 | 68 | 156 | 7.0 | 11.0 | 0.00 | 0.00 | 0.00 | 45 | 1004.0 |
| 20260504190528 | 68 | 160 | 7.0 | 11.0 | 0.00 | 0.00 | 0.00 | 45 | 1004.3 |
| 20260504185526 | 68 | 154 | 7.0 | 9.0 | 0.00 | 0.00 | 0.00 | 45 | 1004.1 |
| 20260504185028 | 68 | 158 | 6.0 | 11.0 | 0.00 | 0.00 | 0.00 | 45 | 1004.0 |
| 20260504184527 | 69 | 152 | 7.0 | 14.0 | 0.00 | 0.00 | 0.00 | 45 | 1004.0 |
| 20260504183527 | 69 | 147 | 9.0 | 14.0 | 0.00 | 0.00 | 0.00 | 46 | 1004.1 |
| 20260504183027 | 69 | 149 | 6.0 | 11.0 | 0.00 | 0.00 | 0.00 | 47 | 1004.0 |
| 20260504182528 | 69 | 138 | 2.0 | 6.0 | 0.00 | 0.00 | 0.00 | 48 | 1004.0 |
| 20260504182028 | 69 | 137 | 2.0 | 6.0 | 0.00 | 0.00 | 0.00 | 49 | 1003.7 |
| 20260504181527 | 69 | 139 | 2.0 | 6.0 | 0.00 | 0.00 | 0.00 | 49 | 1003.8 |
| 20260504181027 | 69 | 137 | 2.0 | 6.0 | 0.00 | 0.00 | 0.00 | 48 | 1003.7 |
| 20260504180528 | 69 | 140 | 1.0 | 4.0 | 0.00 | 0.00 | 0.00 | 48 | 1003.7 |
| 20260504180027 | 69 | 149 | 3.0 | 4.0 | 0.00 | 0.00 | 0.00 | 48 | 1003.8 |
| 20260504175027 | 70 | 270 | 1.0 | 2.0 | 0.00 | 0.00 | 0.00 | 48 | 1003.7 |
| 20260504174526 | 70 | 270 | 0.0 | 2.0 | 0.00 | 0.00 | 0.00 | 48 | 1003.5 |
| 20260504174027 | 70 | 270 | 1.0 | 2.0 | 0.00 | 0.00 | 0.00 | 47 | 1003.7 |
| 20260504173026 | 71 | 0 | 0.0 | 0.0 | 0.00 | 0.00 | 0.00 | 46 | 1003.8 |
| 20260504171526 | 71 | 0 | 0.0 | 0.0 | 0.00 | 0.00 | 0.00 | 46 | 1003.8 |
| 20260504171026 | 71 | 270 | 0.0 | 2.0 | 0.00 | 0.00 | 0.00 | 46 | 1003.6 |
| 20260504170526 | 71 | 270 | 0.0 | 2.0 | 0.00 | 0.00 | 0.00 | 46 | 1003.9 |
| 20260504151025 | 72 | 209 | 3.0 | 9.0 | 0.00 | 0.00 | 0.00 | 47 | 1004.1 |
| 20260504150526 | 72 | 213 | 3.0 | 9.0 | 0.00 | 0.00 | 0.00 | 44 | 1004.1 |
| 20260504141025 | 71 | 203 | 7.0 | 11.0 | 0.00 | 0.00 | 0.00 | 44 | 1004.6 |
| 20260504140524 | 71 | 189 | 8.0 | 11.0 | 0.00 | 0.00 | 0.00 | 46 | 1004.7 |
| 20260504130523 | 72 | 200 | 7.0 | 14.0 | 0.00 | 0.00 | 0.00 | 46 | 1005.1 |
| 20260504110524 | 69 | 163 | 5.0 | 13.0 | 0.00 | 0.00 | 0.00 | 47 | 1005.7 |
| 20260504100522 | 66 | 151 | 5.0 | 15.0 | 0.00 | 0.00 | 0.00 | 48 | 1006.0 |
| 20260504081521 | 64 | 129 | 1.0 | 8.0 | 0.00 | 0.00 | 0.00 | 53 | 1006.5 |
| 20260504081022 | 63 | 131 | 4.0 | 8.0 | 0.00 | 0.00 | 0.00 | 54 | 1006.4 |
| 20260504080521 | 63 | 139 | 4.0 | 8.0 | 0.00 | 0.00 | 0.00 | 53 | 1006.3 |
| 20260504050520 | 56 | 135 | 2.0 | 9.0 | 0.00 | 0.00 | 0.00 | 54 | 1006.1 |
| 20260504050021 | 56 | 133 | 3.0 | 11.0 | 0.00 | 0.00 | 0.00 | 53 | 1006.1 |
| 20260504045519 | 55 | 133 | 4.0 | 11.0 | 0.00 | 0.00 | 0.00 | 53 | 1006.0 |
| 20260504045020 | 55 | 127 | 2.0 | 9.0 | 0.00 | 0.00 | 0.00 | 53 | 1006.0 |
| 20260504044519 | 55 | 126 | 3.0 | 9.0 | 0.00 | 0.00 | 0.00 | 53 | 1006.0 |
| 20260504044021 | 55 | 131 | 4.0 | 11.0 | 0.00 | 0.00 | 0.00 | 54 | 1005.9 |
| 20260504043520 | 54 | 130 | 4.0 | 11.0 | 0.00 | 0.00 | 0.00 | 53 | 1006.1 |
| 20260504042520 | 54 | 133 | 4.0 | 9.0 | 0.00 | 0.00 | 0.00 | 54 | 1006.0 |
| 20260504041520 | 54 | 129 | 4.0 | 9.0 | 0.00 | 0.00 | 0.00 | 54 | 1006.3 |
| 20260504041020 | 54 | 128 | 3.0 | 9.0 | 0.00 | 0.00 | 0.00 | 54 | 1006.0 |
| 20260504040021 | 54 | 125 | 6.0 | 14.0 | 0.00 | 0.00 | 0.00 | 54 | 1006.0 |
| 20260504035519 | 55 | 124 | 4.0 | 17.0 | 0.00 | 0.00 | 0.00 | 53 | 1005.9 |
| 20260504035019 | 54 | 129 | 5.0 | 20.0 | 0.00 | 0.00 | 0.00 | 53 | 1005.7 |
| 20260504034520 | 54 | 131 | 8.0 | 20.0 | 0.00 | 0.00 | 0.00 | 54 | 1005.6 |
| 20260504034020 | 54 | 125 | 8.0 | 20.0 | 0.00 | 0.00 | 0.00 | 54 | 1005.5 |
| 20260504033519 | 54 | 116 | 8.0 | 15.0 | 0.00 | 0.00 | 0.00 | 53 | 1005.8 |
| 20260504033018 | 54 | 115 | 8.0 | 15.0 | 0.00 | 0.00 | 0.00 | 53 | 1005.7 |
| 20260504032520 | 54 | 124 | 7.0 | 11.0 | 0.00 | 0.00 | 0.00 | 53 | 1005.8 |
| 20260504032019 | 54 | 126 | 7.0 | 11.0 | 0.00 | 0.00 | 0.00 | 53 | 1005.8 |
| 20260504031519 | 54 | 126 | 5.0 | 11.0 | 0.00 | 0.00 | 0.00 | 53 | 1005.8 |
| 20260504030519 | 54 | 114 | 7.0 | 11.0 | 0.00 | 0.00 | 0.00 | 53 | 1006.0 |
| 20260504030020 | 54 | 113 | 4.0 | 11.0 | 0.00 | 0.00 | 0.00 | 52 | 1005.9 |
| 20260504025020 | 54 | 115 | 6.0 | 13.0 | 0.00 | 0.00 | 0.00 | 52 | 1005.7 |
| 20260504024519 | 54 | 116 | 6.0 | 15.0 | 0.00 | 0.00 | 0.00 | 52 | 1005.9 |
| 20260504023019 | 54 | 121 | 7.0 | 13.0 | 0.00 | 0.00 | 0.00 | 52 | 1005.8 |
| 20260504022518 | 55 | 112 | 5.0 | 13.0 | 0.00 | 0.00 | 0.00 | 51 | 1005.7 |
| 20260504022018 | 55 | 120 | 5.0 | 13.0 | 0.00 | 0.00 | 0.00 | 51 | 1005.6 |
| 20260504021519 | 55 | 124 | 5.0 | 13.0 | 0.00 | 0.00 | 0.00 | 51 | 1005.8 |
| 20260504021018 | 55 | 120 | 8.0 | 13.0 | 0.00 | 0.00 | 0.00 | 50 | 1005.8 |
| 20260504020518 | 55 | 118 | 6.0 | 13.0 | 0.00 | 0.00 | 0.00 | 50 | 1005.7 |
| 20260504015518 | 56 | 127 | 8.0 | 14.0 | 0.00 | 0.00 | 0.00 | 50 | 1006.0 |
| 20260504015019 | 56 | 119 | 5.0 | 14.0 | 0.00 | 0.00 | 0.00 | 50 | 1005.8 |
| 20260504014518 | 56 | 122 | 8.0 | 14.0 | 0.00 | 0.00 | 0.00 | 50 | 1005.7 |
| 20260504014018 | 55 | 124 | 5.0 | 13.0 | 0.00 | 0.00 | 0.00 | 50 | 1005.8 |
| 20260504013019 | 56 | 123 | 6.0 | 13.0 | 0.00 | 0.00 | 0.00 | 49 | 1005.8 |
| 20260504012518 | 56 | 127 | 7.0 | 14.0 | 0.00 | 0.00 | 0.00 | 49 | 1005.7 |
| 20260504012018 | 56 | 123 | 6.0 | 14.0 | 0.00 | 0.00 | 0.00 | 49 | 1005.7 |
| 20260504011018 | 56 | 122 | 8.0 | 18.0 | 0.00 | 0.00 | 0.00 | 48 | 1005.8 |
| 20260504010018 | 56 | 131 | 6.0 | 15.0 | 0.00 | 0.00 | 0.00 | 48 | 1005.6 |
| 20260504005518 | 56 | 129 | 8.0 | 15.0 | 0.00 | 0.00 | 0.00 | 48 | 1005.6 |
| 20260504004517 | 56 | 127 | 8.0 | 16.0 | 0.00 | 0.00 | 0.00 | 48 | 1005.7 |
| 20260504004018 | 56 | 125 | 7.0 | 16.0 | 0.00 | 0.00 | 0.00 | 48 | 1005.7 |
| 20260504002517 | 56 | 129 | 8.0 | 14.0 | 0.00 | 0.00 | 0.00 | 48 | 1005.7 |
| 20260504002019 | 56 | 131 | 5.0 | 14.0 | 0.00 | 0.00 | 0.00 | 48 | 1005.8 |
| 20260504000517 | 57 | 112 | 8.0 | 13.0 | 0.00 | 0.00 | 0.00 | 48 | 1005.8 |
| 20260504000017 | 57 | 116 | 8.0 | 13.0 | 0.00 | 0.00 | 0.00 | 48 | 1005.8 |
| 20260503235518 | 57 | 128 | 5.0 | 11.0 | 0.00 | 0.00 | 0.00 | 48 | 1006.0 |
| 20260503235017 | 57 | 134 | 8.0 | 13.0 | 0.00 | 0.00 | 0.00 | 47 | 1006.0 |
| 20260503234517 | 57 | 124 | 4.0 | 13.0 | 0.00 | 0.00 | 0.00 | 48 | 1006.1 |
| 20260503233518 | 57 | 128 | 6.0 | 11.0 | 0.00 | 0.00 | 0.00 | 47 | 1006.0 |
| 20260503233017 | 58 | 128 | 7.0 | 11.0 | 0.00 | 0.00 | 0.00 | 47 | 1005.9 |
| 20260503231517 | 58 | 122 | 6.0 | 13.0 | 0.00 | 0.00 | 0.00 | 47 | 1006.0 |
| 20260503231017 | 58 | 127 | 6.0 | 13.0 | 0.00 | 0.00 | 0.00 | 47 | 1006.1 |
| 20260503224016 | 58 | 129 | 6.0 | 11.0 | 0.00 | 0.00 | 0.00 | 48 | 1006.2 |
| 20260503223517 | 58 | 128 | 7.0 | 11.0 | 0.00 | 0.00 | 0.00 | 48 | 1006.2 |
| 20260503223017 | 58 | 121 | 8.0 | 11.0 | 0.00 | 0.00 | 0.00 | 47 | 1006.2 |
| 20260503222517 | 58 | 125 | 5.0 | 11.0 | 0.00 | 0.00 | 0.00 | 48 | 1006.2 |
| 20260503222016 | 58 | 127 | 6.0 | 11.0 | 0.00 | 0.00 | 0.00 | 48 | 1006.2 |
| 20260503221515 | 59 | 127 | 6.0 | 11.0 | 0.00 | 0.00 | 0.00 | 48 | 1006.2 |
| 20260503221017 | 59 | 129 | 6.0 | 14.0 | 0.00 | 0.00 | 0.00 | 48 | 1006.4 |
| 20260503220516 | 59 | 127 | 7.0 | 14.0 | 0.00 | 0.00 | 0.00 | 48 | 1006.4 |
| 20260503214516 | 59 | 129 | 8.0 | 15.0 | 0.00 | 0.00 | 0.00 | 49 | 1006.4 |
| 20260503214017 | 59 | 127 | 5.0 | 13.0 | 0.00 | 0.00 | 0.00 | 49 | 1006.4 |
| 20260503213515 | 60 | 129 | 4.0 | 13.0 | 0.00 | 0.00 | 0.00 | 48 | 1006.6 |
| 20260503213017 | 60 | 133 | 6.0 | 14.0 | 0.00 | 0.00 | 0.00 | 48 | 1006.4 |
| 20260503212517 | 60 | 135 | 4.0 | 14.0 | 0.00 | 0.00 | 0.00 | 48 | 1006.4 |
| 20260503212016 | 60 | 131 | 7.0 | 11.0 | 0.00 | 0.00 | 0.00 | 48 | 1006.3 |
| 20260503211516 | 60 | 126 | 4.0 | 11.0 | 0.00 | 0.00 | 0.00 | 48 | 1006.4 |
| 20260503211015 | 60 | 126 | 5.0 | 9.0 | 0.00 | 0.00 | 0.00 | 48 | 1006.4 |
| 20260503210515 | 61 | 128 | 4.0 | 9.0 | 0.00 | 0.00 | 0.00 | 48 | 1006.5 |